Tracking 31027 objects as of 19-Jul-2025
HD Live streaming from Space Station
objects crossing your sky now

ATLAS 5 CENTAUR DEB

Track ATLAS 5 CENTAUR DEB now!


NORAD ID: 46607
Int'l Code: 2018-079CF
Perigee: 7,799.6 km
Apogee: 31,786.2 km
Inclination: 12.9 °
Period: 702.0 minutes
Semi major axis: 26163 km
RCS: Unknown
Launch date: October 17, 2018
Source: United States (US)
Launch site: AIR FORCE EASTERN TEST RANGE (AFETR)

Note: This is SATELLITE DEBRIS
Your satellite tracking list
IRIDIUM 106
Track 1 satellite(s)




NASA's NSSDC Master Catalog

Two Line Element Set (TLE):
1 46607U 18079CF  25197.45020236 -.00000060  00000-0  00000+0 0  9990
2 46607  12.9393  24.0814 4583900 359.5998   0.1341  2.05139366 43560
Source of the keplerian elements: AFSPC